User: anonymous   Login
Location: Unspecified
(0.0000°N, 0.0000°E)
Time: 06:59:23
(UTC+00:00)
Language:

TERCEL - Orbit

View from above orbital plane
View from above orbital plane
View from above satellite
View from above satellite

Ground track
Ground track

The orbit data is extracted from the following two-line orbital elements,

1 20547U 90028B   19021.80566730  .00000218  00000-0  90151-5 0  9997
2 20547  94.1093  89.2281 0081349 239.4451 119.8748 15.24363705588071
Epoch (UTC): 21 January 2019 19:20:09
Eccentricity: 0.0081349
inclination: 94.1093°
perigee height: 437 km
apogee height: 548 km
right ascension of ascending node: 89.2281°
argument of perigee: 239.4451°
revolutions per day: 15.24363705
mean anomaly at epoch: 119.8748°
orbit number at epoch: 58807

The dashed part of the orbit path shows where the satellite is in the earth's shadow,  

DLR